Kosmos-1862

operational
NORAD ID: 18152 Int'l Des: 1987-055 Owner: GRU Country: SU
LEOCIRCULARPOLAR

关于 Kosmos-1862

正在加载描述...

实时位置

正在加载3D地球...

即将过境

高度历史

Altitude vs Time

uPlot chart will show altitude changes over time

两行轨道根数

1 18152U 87055A 26073.91114407 .00010668 00000-0 35923-3 0 9993
2 18152 82.4855 42.1564 0009164 10.1294 350.0130 15.30589903 90633
Epoch: Mar 14, 2026 • Age: 5 hours

当前状态

高度 487.1 km
速度 7.63 km/s
星下点 79.46°N, 40.59°W
发射日期 Jul 1, 1987
运行时间 38.7 years
类型 other

技术详情

分类 Payload
质量 1750.00 kg
干质量 1750.00 kg
总质量 1750.00 kg
长度 3.20 m
直径 1.30 m
跨度 13.10 m
形状 Cyl + Ant
制造商 YUZH
平台类型 Tselina-D
阶段状态 In Orbit
所有者/国家 GRU/SU

大型星座

Loading constellations...